This is the latest recevied weather packets stored in our database for station/object WB3IGR. If no packets are shown the sender has not sent any weather packets the latest 10 day(s).
| Time | Temp. | Humidity | Pressure | Rain* | Wind** | Luminosity | Snow |
|---|---|---|---|---|---|---|---|
| 1777940391 | 18.89° C | 50% | 1010.4 hPa | 0 mm | - | 0 W/m² | - |
| 1777940088 | 18.89° C | 51% | 1010.5 hPa | 0 mm | - | 0 W/m² | - |
| 1777939785 | 18.89° C | 51% | 1010.6 hPa | 0 mm | - | 0 W/m² | - |
| 1777939483 | 19.44° C | 50% | 1010.6 hPa | 0 mm | - | 2 W/m² | - |
| 1777939180 | 19.44° C | 50% | 1010.6 hPa | 0 mm | - | 3 W/m² | - |
| 1777938877 | 19.44° C | 50% | 1010.7 hPa | 0 mm | - | 6 W/m² | - |
| 1777938573 | 19.44° C | 50% | 1010.6 hPa | 0 mm | - | 10 W/m² | - |
| 1777938271 | 19.44° C | 49% | 1010.5 hPa | 0 mm | - | 14 W/m² | - |
| 1777937967 | 20° C | 49% | 1010.3 hPa | 0 mm | - | 18 W/m² | - |
| 1777937663 | 20° C | 47% | 1010.2 hPa | 0 mm | - | 22 W/m² | - |
| 1777937360 | 20° C | 47% | 1010.3 hPa | 0 mm | - | 26 W/m² | - |
| 1777937057 | 20.56° C | 47% | 1010.4 hPa | 0 mm | - | 31 W/m² | - |
| 1777936754 | 20.56° C | 48% | 1010.4 hPa | 0 mm | - | 35 W/m² | - |
| 1777936450 | 20.56° C | 48% | 1010.5 hPa | 0 mm | - | 40 W/m² | - |
| 1777936147 | 20.56° C | 47% | 1010.2 hPa | 0 mm | - | 45 W/m² | - |
| 1777935844 | 21.11° C | 46% | 1010.1 hPa | 0 mm | - | 62 W/m² | - |
| 1777935543 | 21.11° C | 47% | 1010.1 hPa | 0 mm | - | 76 W/m² | - |
| 1777935239 | 21.11° C | 46% | 1010.2 hPa | 0 mm | - | 85 W/m² | - |
| 1777934937 | 21.67° C | 46% | 1010.2 hPa | 0 mm | - | 101 W/m² | - |
| 1777934633 | 22.22° C | 43% | 1010.4 hPa | 0 mm | - | 117 W/m² | - |
| 1777934330 | 22.22° C | 43% | 1010.3 hPa | 0 mm | - | 130 W/m² | - |
| 1777934025 | 22.22° C | 42% | 1010.2 hPa | 0 mm | - | 149 W/m² | - |
| 1777933722 | 22.78° C | 42% | 1010.3 hPa | 0 mm | - | 158 W/m² | - |
| 1777933419 | 22.78° C | 42% | 1010.1 hPa | 0 mm | - | 179 W/m² | - |
| 1777933118 | 22.78° C | 41% | 1010.2 hPa | 0 mm | - | 189 W/m² | - |
* Rain latest hour (hover to see other rain measurements)
** Current wind speed in m/s (hover to see current wind gust speed)